Terminal Aerodrome Forecast
Issued by NWS Albany, NY

Home | Current Version | Previous Version | Text Only | Print | Product List | Glossary On
Versions: 1 2 3 4 5 6 7 8 9 10 11 12 13 14 15
000
FTUS41 KALY 280500
TAFALB
TAF
KALB 280520Z 2806/2906 29008KT P6SM FEW050 SCT130
     FM280800 VRB03KT P6SM SCT040 SCT250
     FM281500 33012KT P6SM SCT040
     FM290000 31006KT P6SM SKC=

USA.gov is the U.S. government's official web portal to all federal, state and local government web resources and services.